K5RG-3 Weather Reports


Display with metric or nautical units.
time (UTC)temp
F
wind
direction
speed
MPH
gust
MPH
rain 1hr
in
rain 24hr
in
rain mn
in
humidity
%
barometer
mb
20260505230014 80 168 1.0 5.0 0.00 0.00 0.00 82 1005.7
20260505224507 80 147 0.0 6.0 0.00 0.00 0.00 82 1005.6
20260505223008 80 140 2.0 7.0 0.00 0.00 0.00 82 1005.7
20260505221505 80 221 1.0 4.0 0.00 0.00 0.00 84 1005.8
20260505220013 80 114 2.0 11.0 0.00 0.00 0.00 84 1005.9
20260505214512 80 209 2.0 9.0 0.00 0.00 0.00 84 1006.0
20260505213001 80 176 2.0 9.0 0.00 0.00 0.00 83 1006.1
20260505211619 80 252 1.0 6.0 0.00 0.00 0.00 84 1006.2
20260505210107 80 140 1.0 9.0 0.00 0.00 0.00 84 1006.3
20260505204558 80 209 1.0 9.0 0.00 0.00 0.00 83 1006.6
20260505203055 80 96 0.0 6.0 0.00 0.00 0.00 84 1006.8
20260505201604 80 199 2.0 8.0 0.00 0.00 0.00 84 1007.1
20260505200052 80 146 1.0 9.0 0.00 0.00 0.00 84 1007.2
20260505194554 80 109 1.0 6.0 0.00 0.00 0.00 84 1007.3
20260505193052 80 151 0.0 6.0 0.00 0.00 0.00 83 1007.2
20260505191555 80 182 1.0 8.0 0.00 0.00 0.00 84 1007.3
20260505190104 79 171 0.0 4.0 0.00 0.00 0.00 85 1007.5
20260505184559 79 169 2.0 12.0 0.00 0.00 0.00 85 1007.6
20260505183051 79 160 1.0 5.0 0.00 0.00 0.00 86 1007.8
20260505181545 79 129 1.0 6.0 0.00 0.00 0.00 85 1007.9
20260505180049 79 138 1.0 5.0 0.00 0.00 0.00 85 1007.8
20260505174543 79 138 0.0 5.0 0.00 0.00 0.00 85 1007.9
20260505173045 79 209 1.0 4.0 0.00 0.00 0.00 85 1008.1
20260505171543 78 182 0.0 8.0 0.00 0.00 0.00 86 1008.3
20260505170041 79 167 1.0 6.0 0.00 0.00 0.00 84 1008.2
20260505164541 79 176 1.0 8.0 0.00 0.00 0.00 84 1008.2
20260505163041 79 187 1.0 6.0 0.00 0.00 0.00 83 1008.2
20260505161540 79 171 2.0 10.0 0.00 0.00 0.00 84 1008.1
20260505153039 79 160 1.0 5.0 0.00 0.00 0.00 83 1007.8
20260505151536 79 139 1.0 6.0 0.00 0.00 0.00 84 1007.7
20260505124505 74 141 0.0 5.0 0.00 0.00 0.00 88 1007.5
20260505123113 74 225 0.0 2.0 0.00 0.00 0.00 88 1007.2
20260505121555 74 182 0.0 4.0 0.00 0.00 0.00 89 1007.2
20260505120055 74 192 0.0 4.0 0.00 0.00 0.00 89 1007.5
20260505114559 74 182 0.0 3.0 0.00 0.00 0.00 88 1007.2
20260505113051 74 209 0.0 2.0 0.00 0.00 0.00 88 1007.0
20260505111542 74 223 0.0 1.0 0.00 0.00 0.00 88 1007.4
20260505101525 74 218 0.0 2.0 0.00 0.00 0.00 87 1007.2
20260505100030 74 209 0.0 2.0 0.00 0.00 0.00 87 1007.0
20260505094517 74 192 0.0 3.0 0.00 0.00 0.00 87 1007.3
20260505093013 73 207 0.0 3.0 0.00 0.00 0.00 87 1007.5
20260505091512 73 207 0.0 3.0 0.00 0.00 0.00 87 1007.4
20260505090009 74 277 0.0 4.0 0.00 0.00 0.00 86 1007.5
20260505084504 74 253 0.0 3.0 0.00 0.00 0.00 86 1007.4
20260505083109 74 146 0.0 2.0 0.00 0.00 0.00 86 1007.5
20260505081556 74 164 0.0 4.0 0.00 0.00 0.00 85 1007.6
20260505080055 74 225 0.0 3.0 0.00 0.00 0.00 85 1007.8
20260505074548 73 245 0.0 3.0 0.00 0.00 0.00 85 1007.9
20260505073055 73 138 0.0 4.0 0.00 0.00 0.00 85 1007.9
20260505071543 73 292 0.0 4.0 0.00 0.00 0.00 85 1008.0
20260505070050 73 134 0.0 3.0 0.00 0.00 0.00 85 1008.3
20260505064538 72 169 0.0 4.0 0.00 0.00 0.00 85 1008.5
20260505063037 72 192 0.0 1.0 0.00 0.00 0.00 85 1008.8
20260505061535 72 70 0.0 1.0 0.00 0.00 0.00 85 1008.9
20260505060037 72 103 0.0 2.0 0.00 0.00 0.00 84 1008.8
20260505054534 72 227 0.0 3.0 0.00 0.00 0.00 84 1009.0
20260505053033 72 133 0.0 1.0 0.00 0.00 0.00 83 1009.0
20260505051536 72 138 0.0 4.0 0.00 0.00 0.00 83 1009.1
20260505041546 72 69 0.0 1.0 0.00 0.00 0.00 83 1009.6
20260505040028 72 182 0.0 0.0 0.00 0.00 0.00 82 1009.7
20260505034528 72 229 0.0 0.0 0.00 0.00 0.00 82 1009.8
20260505033027 72 218 0.0 0.0 0.00 0.00 0.00 81 1009.8
20260505031527 72 209 0.0 0.0 0.00 0.00 0.00 80 1009.7
20260505030033 72 147 0.0 0.0 0.00 0.00 0.00 80 1009.7
20260505024527 73 158 0.0 1.0 0.00 0.00 0.00 79 1009.8
20260505023033 73 140 0.0 2.0 0.00 0.00 0.00 79 1009.7
20260505021527 73 111 0.0 2.0 0.00 0.00 0.00 78 1009.6
20260505020026 73 225 0.0 2.0 0.00 0.00 0.00 78 1009.6
20260505014524 74 153 0.0 0.0 0.00 0.00 0.00 78 1009.3
20260505013025 74 131 0.0 1.0 0.00 0.00 0.00 77 1009.3
20260505011529 74 153 0.0 4.0 0.00 0.00 0.00 77 1009.4
20260505010023 74 147 0.0 2.0 0.00 0.00 0.00 76 1009.2
20260505004533 74 274 0.0 5.0 0.00 0.00 0.00 76 1009.1
20260505003021 75 133 0.0 3.0 0.00 0.00 0.00 75 1009.2
20260505001520 75 141 0.0 3.0 0.00 0.00 0.00 74 1009.2
20260505000028 76 141 0.0 2.0 0.00 0.00 0.00 73 1009.3
20260504234519 76 149 0.0 2.0 0.00 0.00 0.00 73 1009.3
20260504233017 77 158 1.0 3.0 0.00 0.00 0.00 72 1009.5
20260504231516 76 163 0.0 4.0 0.00 0.00 0.00 73 1009.7